Flight Information

DEPARTURE
TORRANCE, CA
Elevation:
103
Runways:
H1 - 110x110 - ASPH-G
11R/29L - 3000x75 - ASPH-CONC-F
11L/29R - 5001x150 - ASPH-CONC-F
Active PE Departure:
29L - 29R
Current PE ATIS:
E
Altimeter:
Remarks:
ATIS:
125.6 310-534-2847
Ground:
120.9
Tower:
124.0 (South) 133.075 (North)
DESTINATION
,
Elevation:
TPA:
1000 (est.)


6793.6 NM73° True-14° Var59° HDG

Flight Plan:
(click to file on line)

1. Type
2. Aircraft Identification
3. Aircraft Type / Special Equipment
4. True Airspeed
kts
5. Departure Airport
(ICAO code)
6. Arriving Airport
(ICAO code)
7. Cruising Altitude
ft
8. Alternate Airport
(ICAO code)
9. Route of Flight
10. Remarks


00:00:00 Departure ATIS: Destination ATIS:

Clearance Limit:
Route:
Altitude: Expect in minutes
Frequency:
Transponder: (7500 Hijack / 7600 Lost Comms / 7700 Emergency)


KTOA 211647Z 25003KT 7SM SKC 27/19 A3007
Time: 2021-09-21T16:47:00Z
1632246327
Winds: 250 @ 3 kts
Visibility: 7.0 sm
Clouds (AGL): SKC
Temperature: 27.0 C
Dew Point: 19.0 C
Pressure: 30.070866 in Hgbr


Notes:

Data extracted from FAA Digital Chart Supplement. Effective: 0901Z Thursday, AUG 12, 2021 to 0901Z Thursday, OCT 7, 2021
Current ATIS data is provided courtisy of PilotEdge.